Dewpoint
51 50 50 50 50 50 51 51 51 50 50 46 44 45 38 35 33 35 36 36 33 29 25 28 30 28 29 28 27 27 25 24 23 22 22 20 21 20 20 21 20 19 19 18 15 12 9 7 5 5 13 14 14 14 16 18 19 18 17 14 13 44 17 19 16 24 18 16 16 15 14 12 10 8 7 6 5 4 4 17 25 21 22 14 17 20 22
50 50 50 50 50 50 51 51 51 51 50 48 47 42 37 36 35 35 36 36 34 31 26 24 25 26 24 22 20 20 20 19 18 18 18 22 24 24 24 23 22 24 26 27 24 18 11 10 7 7 10 9 12 14 12 14 16 18 18 16 19 18 19 22 21 18 19 19 23 14 13 12 11 10 8 7 6 5 4 6 32 13 18 21 18 15 23
50 50 50 50 50 51 51 51 51 51 51 49 46 41 39 37 35 35 35 35 31 25 26 24 22 22 19 17 16 17 27 26 26 28 27 28 27 26 25 25 26 26 28 29 29 30 31 14 11 9 7 7 10 9 14 12 12 15 22 48 19 16 23 21 18 18 16 17 17 18 12 11 11 12 9 8 6 6 5 3 19 20 26 23 21 20 26
50 50 49 50 51 51 51 51 50 51 51 50 47 44 40 33 30 31 31 31 29 27 22 20 20 18 20 27 29 29 27 28 28 28 26 26 27 27 26 26 26 25 25 29 30 29 32 31 30 25 18 14 15 30 31 25 25 36 52 47 24 18 26 22 20 19 17 20 29 38 27 13 11 12 12 9 6 5 5 14 14 13 32 28 23 26 37
49 50 50 50 51 51 50 50 50 51 51 49 47 43 40 39 34 31 29 31 29 27 28 26 27 30 27 27 27 26 26 26 26 27 26 27 27 27 25 25 25 26 28 27 28 31 31 32 32 31 31 31 31 32 31 32 36 54 53 49 29 29 21 23 27 23 24 29 26 23 25 16 13 13 12 13 12 7 6 8 6 19 18 18 32 36 23
49 49 50 50 50 50 50 50 50 50 51 50 47 39 38 34 33 32 34 30 29 28 28 30 29 29 27 24 24 24 24 24 25 27 26 26 26 25 25 25 26 28 29 29 28 30 31 32 30 31 31 31 31 30 32 30 41 44 32 37 30 32 22 20 22 20 18 19 22 21 19 20 16 14 14 13 13 13 10 14 11 27 14 12 25 41 37
49 49 49 49 49 50 50 50 50 50 50 50 47 39 37 35 34 33 33 30 31 31 31 31 29 27 25 25 24 23 23 23 24 24 24 23 21 26 25 24 25 27 30 29 29 32 30 30 31 31 30 30 31 30 31 31 32 31 31 31 37 39 35 27 19 20 19 17 16 18 19 18 16 14 14 13 12 12 11 12 12 13 28 26 21 38 41
49 49 49 49 49 50 50 50 50 50 49 48 44 42 38 34 33 36 34 34 33 31 30 29 29 27 30 25 24 22 22 21 22 22 22 21 20 22 21 23 24 30 31 33 29 29 30 30 29 30 29 29 31 30 31 31 32 32 31 31 33 29 37 33 22 18 18 17 17 15 15 16 17 13 12 12 12 11 11 10 11 26 19 19 21 29 35
48 49 49 49 48 49 50 50 50 49 49 46 44 41 40 38 38 39 38 34 33 30 30 30 31 28 28 25 23 23 21 20 21 20 22 22 21 21 22 25 28 33 33 32 31 31 31 31 30 29 29 28 30 31 31 32 31 32 31 31 32 32 37 33 37 32 30 17 17 16 15 14 15 18 15 13 12 12 10 13 10 14 28 32 25 24 22
49 50 49 49 49 50 50 50 50 49 48 45 43 39 40 42 43 44 40 34 39 35 33 29 28 26 27 28 26 24 22 22 23 22 21 21 23 23 24 31 33 33 33 33 33 33 32 30 31 31 30 29 30 31 31 31 31 31 31 32 31 32 31 26 30 29 30 28 19 17 16 15 15 16 17 21 16 15 13 11 16 14 11 16 26 25 29
48 49 49 49 48 49 49 50 50 50 48 45 44 41 40 43 40 43 41 34 33 31 28 27 28 29 27 27 26 25 23 21 20 22 25 24 24 25 27 29 30 32 32 33 34 34 33 32 32 31 31 32 31 31 29 30 32 31 31 31 32 33 33 30 31 27 29 25 24 18 19 15 16 21 21 21 20 19 14 14 21 15 12 13 19 30 38
48 48 49 48 49 49 49 49 49 50 48 49 47 43 42 42 43 43 39 32 31 31 32 30 28 28 27 28 29 26 24 25 24 25 25 27 25 23 25 27 30 31 35 35 35 34 33 33 32 32 31 29 30 29 32 29 30 34 31 29 31 32 35 32 38 27 31 32 37 30 23 21 29 23 20 20 19 20 23 24 18 24 28 14 15 15 16
48 49 50 49 49 50 50 50 50 49 49 48 47 45 43 44 44 41 39 35 32 32 29 28 28 28 29 27 24 24 26 27 27 30 27 27 27 25 25 25 27 31 32 32 33 33 33 33 33 32 30 30 31 31 27 28 26 27 26 27 30 34 34 38 31 32 31 31 30 23 25 40 36 29 29 37 27 23 30 26 28 33 37 39 41 40 44
48 49 49 49 49 50 49 49 49 49 49 49 47 45 45 46 43 41 40 35 33 32 30 31 30 30 28 26 27 28 28 27 27 29 29 31 31 30 27 28 30 34 28 29 36 40 35 37 33 32 32 31 28 26 25 24 23 22 22 25 31 33 36 41 38 35 25 28 30 28 38 32 38 34 34 32 38 41 36 30 41 47 43 41 43 49 49
48 49 50 50 48 49 49 49 49 48 49 49 47 46 45 45 46 44 44 40 33 34 33 30 30 30 29 29 29 28 27 28 27 30 33 33 29 33 38 34 31 31 32 31 44 43 37 33 33 33 32 29 27 30 31 28 27 27 27 27 30 36 39 42 39 37 38 28 26 29 27 25 31 40 39 36 37 40 45 47 43 51 46 47 49 50 51
48 49 49 49 49 49 49 48 48 49 48 49 47 45 45 45 46 46 44 40 37 30 31 31 32 33 31 30 29 27 26 29 31 31 29 31 30 32 39 41 35 35 35 30 42 39 35 32 29 31 30 32 33 31 31 31 29 27 26 33 36 36 37 42 38 38 39 33 27 23 27 29 38 46 37 39 38 36 41 39 39 53 50 50 51 54 55
48 48 48 48 48 49 50 49 48 48 48 49 46 45 46 46 46 46 42 42 39 34 34 35 35 33 31 30 29 29 36 33 33 30 29 29 30 29 32 33 34 34 36 38 40 39 36 33 32 32 34 34 33 33 33 31 30 31 31 31 30 35 37 35 34 39 38 37 30 25 31 34 48 43 32 32 40 38 40 34 39 54 53 56 58 58 58
49 49 49 49 49 49 49 49 48 49 49 50 47 45 44 46 47 46 45 41 37 36 35 36 34 32 31 35 31 32 33 34 32 35 33 32 31 38 34 33 32 33 37 36 38 36 35 36 32 31 29 33 33 33 32 33 32 33 32 34 34 35 40 36 33 31 34 39 37 37 35 51 46 42 40 39 39 43 33 32 46 56 57 59 58 59 59
49 49 49 49 48 48 48 49 48 48 49 49 47 45 44 44 49 47 44 42 39 34 35 35 36 35 34 32 32 31 31 31 33 33 31 31 35 39 36 31 35 36 38 36 39 35 35 34 36 35 31 32 33 34 38 36 36 36 34 36 37 38 39 38 41 37 32 34 35 37 41 51 49 44 44 45 40 36 38 53 58 59 59 59 59 58 59
48 48 48 48 48 48 48 48 49 49 48 48 48 45 44 45 46 48 44 40 40 38 37 37 36 35 35 33 32 32 32 32 38 37 35 32 37 36 32 30 42 35 34 39 34 35 33 32 34 33 31 33 36 38 38 37 37 37 36 41 41 43 42 39 35 41 35 39 41 37 30 46 45 44 49 51 49 49 55 58 59 59 60 59 59 59 59
48 48 47 48 47 47 47 47 47 47 47 48 48 45 45 45 44 48 48 44 41 37 36 37 36 36 36 34 34 34 34 32 33 33 36 36 38 34 28 30 39 38 35 38 34 34 34 29 32 31 32 35 36 42 38 38 37 41 36 43 42 44 45 43 45 46 42 34 33 34 40 49 49 49 47 58 56 57 59 58 57 58 59 59 59 59 60
47 48 48 48 47 47 47 47 47 47 47 47 47 46 43 43 47 48 48 49 43 40 38 38 38 37 37 37 37 37 35 33 33 35 33 32 37 40 36 34 35 42 42 43 38 36 40 40 41 38 36 41 43 40 42 40 36 40 43 45 42 49 46 50 43 49 46 44 45 48 50 52 51 51 53 55 57 58 58 57 57 57 58 59 57 57 58
48 48 48 48 48 48 47 47 47 47 47 47 46 47 43 43 46 48 49 45 45 44 43 42 40 40 40 40 40 39 38 36 34 33 33 32 31 32 31 30 33 45 46 46 39 40 39 39 37 42 40 41 39 39 41 44 40 42 41 44 48 49 52 53 51 48 51 47 51 54 55 54 54 54 55 56 56 56 55 54 54 55 55 56 55 57 58
48 48 48 48 47 48 48 47 47 47 47 47 46 47 45 46 46 47 46 45 42 39 38 38 37 36 36 35 35 34 35 36 37 35 35 35 31 31 32 32 32 42 46 46 49 42 42 42 41 43 37 42 43 41 38 39 42 44 41 41 42 45 51 49 49 50 45 39 50 54 54 54 55 57 55 55 54 53 54 54 54 54 54 54 55 56 57
48 48 48 47 47 47 48 47 47 47 47 48 47 47 47 45 47 47 44 39 39 39 34 34 34 34 34 33 32 32 33 33 33 34 33 34 34 32 31 33 39 42 44 46 51 47 46 40 41 41 37 43 42 37 46 41 41 45 40 41 42 44 51 48 48 49 49 49 53 55 55 55 56 58 52 52 52 52 52 53 53 52 52 52 52 54 55
48 48 48 48 47 47 47 47 48 48 48 48 48 46 45 44 48 51 48 45 44 41 35 32 33 35 36 33 32 33 33 33 32 32 33 32 32 33 33 33 33 38 38 46 48 44 44 42 41 40 38 38 44 43 41 46 46 48 44 42 46 48 50 46 49 48 50 51 55 56 55 54 55 54 52 51 50 50 50 49 49 49 49 49 49 50 51
48 48 48 48 48 48 48 48 48 48 48 48 47 46 46 47 47 49 46 43 39 34 36 34 34 34 34 34 36 35 34 33 32 32 32 34 32 33 33 34 33 34 33 33 35 35 47 42 42 39 39 40 42 40 43 44 46 44 45 48 48 47 47 51 50 47 47 49 52 55 51 50 52 53 52 49 50 49 48 48 48 48 48 48 49 51 51
48 49 48 48 48 48 48 48 48 48 49 49 48 46 46 45 45 46 49 48 42 36 35 35 35 36 38 36 37 35 34 34 32 30 28 29 29 30 32 32 33 32 32 31 32 36 41 37 38 42 41 42 40 39 45 49 49 46 46 47 51 47 48 50 47 48 48 52 54 55 56 56 55 55 53 50 49 49 48 47 47 48 50 50 51 51 51
49 49 48 48 48 48 48 48 48 48 49 49 46 45 44 45 45 45 46 50 48 44 41 40 39 37 34 33 33 32 32 32 33 35 34 27 27 28 29 29 31 30 29 30 32 37 41 41 43 41 41 48 42 39 42 40 42 40 43 50 52 52 53 52 52 52 53 53 54 56 57 55 56 55 53 53 53 50 50 50 50 50 51 51 51 51 50
48 48 49 48 48 49 48 48 48 48 49 47 45 43 40 42 50 49 49 47 48 46 39 36 33 33 35 34 34 34 35 42 37 32 30 29 25 26 27 31 33 33 33 32 38 36 40 39 39 41 40 46 39 42 42 44 42 44 51 53 53 54 54 55 55 53 51 54 56 58 57 57 57 58 57 56 54 54 52 52 51 51 51 51 50 51 51
49 49 49 49 49 48 48 48 48 49 49 45 44 39 38 35 46 48 47 42 51 45 41 39 35 36 35 35 35 41 42 41 37 35 35 36 38 31 25 29 31 31 33 32 36 42 45 41 41 43 45 44 44 43 41 42 41 44 48 51 52 52 53 53 54 55 56 56 57 57 57 57 57 58 56 55 53 53 52 53 54 56 53 52 51 51 51
50 50 49 49 49 49 50 49 49 49 47 43 42 39 40 43 46 46 46 46 46 43 39 36 34 33 32 33 38 38 41 42 40 39 38 36 35 35 27 25 27 27 33 40 42 44 43 45 40 42 44 47 47 45 45 43 40 42 50 51 53 53 54 53 54 56 56 58 57 56 55 55 58 55 54 54 52 52 50 50 51 52 55 53 52 52 52
50 50 50 50 50 50 50 49 50 50 46 46 48 49 48 48 47 46 46 46 43 40 41 37 34 34 32 34 34 40 44 42 42 40 40 39 37 35 27 27 26 28 34 39 42 42 45 43 47 42 46 49 45 44 43 42 43 50 51 51 52 52 52 53 55 57 56 56 58 54 52 53 54 54 55 55 52 51 51 51 51 51 51 50 50 51 52
51 51 51 51 51 51 51 51 51 50 50 48 45 44 46 47 47 48 47 45 40 41 41 38 35 33 33 36 36 46 46 43 41 42 39 42 41 35 31 26 29 36 44 40 43 44 47 47 41 44 45 46 48 44 40 43 48 49 50 50 52 52 52 52 54 54 55 55 55 55 55 55 56 56 53 52 51 52 53 52 51 50 50 50 51 51 52
51 51 50 51 51 51 51 51 49 47 44 43 43 45 45 46 49 49 48 42 37 38 39 39 37 34 35 35 34 42 48 45 42 42 42 42 46 43 46 44 42 38 44 42 43 44 43 43 48 43 42 47 44 40 41 46 47 49 49 50 51 51 51 51 52 54 54 55 55 55 55 55 54 53 51 50 52 52 52 52 51 51 51 51 52 52 53
51 51 51 51 51 51 51 51 50 47 45 44 44 51 49 49 48 47 46 45 41 38 37 37 39 36 38 33 33 42 41 44 47 46 48 48 47 48 48 43 41 40 47 43 43 45 42 48 45 40 46 42 40 43 46 49 47 48 49 49 50 51 50 51 52 53 54 55 55 54 54 54 53 53 52 52 52 52 52 53 53 53 53 52 53 54 53
51 51 51 51 51 50 48 46 49 46 44 43 47 50 51 47 47 47 48 47 47 47 41 40 37 37 39 38 42 45 46 38 47 45 46 45 44 47 46 43 40 46 42 43 43 41 44 51 45 40 41 39 43 48 49 49 48 49 49 50 51 52 53 53 53 52 51 52 53 53 54 53 52 52 51 52 52 53 52 52 53 53 54 54 55 54 55
50 51 50 49 46 43 42 46 45 47 51 51 51 47 48 46 44 46 46 44 47 46 43 43 37 38 42 41 36 47 46 42 48 42 43 46 43 42 45 42 44 44 37 39 42 49 47 44 40 38 40 47 48 48 49 50 51 52 51 52 52 53 53 54 54 50 49 50 50 51 52 52 52 52 51 51 51 51 53 54 54 55 55 56 56 56 56
50 50 50 48 44 43 41 45 53 51 46 50 46 44 44 46 44 41 41 45 45 40 43 41 38 41 41 40 42 50 45 43 42 44 40 44 43 39 47 39 44 43 35 37 41 48 38 39 41 41 39 44 46 47 50 51 51 52 52 53 54 54 54 53 53 53 52 52 52 53 54 53 53 51 51 51 51 51 51 52 53 54 55 55 55 55 55
50 44 42 43 42 42 46 51 52 50 48 47 48 44 40 45 41 35 43 39 38 41 42 38 42 41 43 41 41 41 50 45 41 41 43 44 52 40 42 41 42 40 33 34 39 46 39 35 40 38 37 44 46 49 50 50 51 52 53 53 54 55 54 55 55 54 54 52 53 54 54 55 55 55 53 52 50 50 50 51 53 53 54 54 56 55 55
46 45 45 42 44 46 46 48 48 48 47 45 44 43 42 35 43 43 41 37 39 41 42 44 46 45 46 45 45 41 51 51 49 50 47 41 50 48 41 35 45 37 34 33 43 45 43 40 37 36 39 45 47 49 50 51 51 52 53 55 55 55 54 54 52 53 54 54 54 53 52 52 53 54 55 54 54 52 51 51 52 53 53 53 54 54 54
48 47 45 46 46 46 47 47 48 45 45 45 39 34 34 40 45 42 41 36 39 44 46 45 41 44 45 47 46 48 49 53 51 48 45 40 48 44 41 43 43 37 34 42 46 44 43 36 35 37 43 47 47 49 50 50 51 51 52 54 55 54 50 50 53 53 53 52 52 52 53 53 53 54 55 55 55 55 54 54 54 54 54 55 54 53 53
49 49 48 47 47 46 47 39 41 45 34 32 32 32 36 33 37 37 40 45 44 45 46 46 45 47 47 50 50 51 49 51 47 47 45 43 48 47 42 40 40 34 39 48 45 41 37 35 36 41 46 48 50 49 50 51 53 53 54 54 53 53 53 51 50 50 50 51 52 52 53 53 52 53 54 54 54 55 55 55 55 54 54 53 53 53 54
51 50 48 48 45 43 43 33 39 42 35 34 34 32 35 35 35 39 40 41 44 44 48 43 43 47 43 47 46 48 50 50 51 49 46 48 45 40 42 37 39 44 50 44 41 36 37 40 43 45 48 50 50 51 52 53 53 54 54 54 54 54 53 52 51 50 52 53 52 52 52 52 52 53 53 53 52 52 53 54 55 53 53 52 53 54 56
48 44 40 38 34 36 37 32 38 34 33 36 36 36 38 35 36 38 40 45 45 42 45 49 47 47 46 51 50 49 50 46 52 46 42 46 42 44 41 38 46 47 42 37 38 39 39 39 45 48 48 49 50 52 52 52 52 52 52 53 54 54 54 53 53 53 51 51 52 51 51 52 52 52 52 52 51 52 51 51 52 52 51 52 52 54 56
47 40 34 32 31 33 36 35 35 33 41 43 41 42 41 43 41 40 41 43 42 42 43 45 49 47 44 49 46 45 50 49 46 45 48 47 41 38 45 49 48 40 38 38 34 33 36 42 46 47 49 49 51 52 52 52 54 54 53 53 53 53 53 53 54 55 54 53 52 52 51 51 51 51 50 50 50 51 50 51 51 52 53 52 52 53 55
44 43 34 33 33 35 45 35 38 41 44 44 45 46 45 45 47 46 46 47 44 44 47 47 46 48 44 48 48 49 49 49 45 47 48 40 40 43 48 44 36 38 35 34 34 35 40 44 48 49 50 51 51 51 52 52 53 54 53 54 54 53 53 54 55 55 55 53 52 52 53 53 52 52 51 50 50 50 51 51 51 52 52 52 54 54 54
34 40 36 31 31 35 35 42 47 46 48 46 45 48 48 49 46 45 48 50 48 46 46 46 45 47 48 48 47 43 45 49 46 45 48 43 45 42 35 37 38 40 40 36 37 42 44 47 49 50 50 51 51 51 51 51 52 53 54 54 54 54 53 53 54 53 53 54 54 54 54 53 52 53 51 50 49 50 51 52 53 53 53 53 52 53 55
46 34 32 30 39 42 40 40 44 41 46 49 49 49 46 45 46 47 48 51 50 50 48 48 44 44 39 43 40 40 38 42 38 36 44 41 38 35 36 34 36 34 40 43 43 45 46 49 50 51 51 51 52 52 52 53 52 51 52 53 53 53 54 53 54 54 54 53 52 51 52 53 52 52 51 51 50 51 54 55 55 55 55 55 53 52 51
33 29 39 30 34 34 38 38 35 34 39 44 45 45 47 46 45 47 49 51 51 52 53 53 50 43 40 40 35 38 38 43 42 39 39 38 38 39 38 36 38 38 40 44 45 47 49 50 51 50 51 51 52 52 52 53 54 53 51 51 50 50 50 52 52 50 51 51 52 52 54 54 52 51 50 50 52 54 54 55 55 55 53 55 55 54 54
41 30 33 34 35 35 35 33 32 32 35 40 43 44 46 47 47 49 50 52 50 45 43 41 41 39 36 37 36 35 37 44 44 40 40 39 42 40 38 37 40 43 44 48 49 50 50 51 51 51 51 51 52 52 53 53 53 53 52 52 51 52 50 47 49 49 51 53 54 53 54 50 50 52 54 55 53 51 48 49 52 53 53 54 53 53 54
28 28 30 32 34 34 36 36 36 36 37 40 42 42 45 47 49 51 51 52 43 39 38 41 41 37 36 37 41 45 44 40 38 41 39 41 44 39 39 42 43 46 47 48 49 51 51 51 52 52 52 52 53 53 53 53 53 53 51 50 50 50 50 51 50 48 47 47 48 49 49 51 52 51 50 48 48 48 47 48 49 49 49 49 50 51 52